Zurück zum Katalog

OPS 0856 DEB

LostPO
NORAD 25097·DEBRIS·🇺🇸 United States

Gestartet Aug 19, 1966 von Vandenberg Space Force Base

Loading…

Nächste Überflüge (nächste 24 Stunden)

TLE

VeraltetSource: Space-Track

Epoche: May 7, 2026, 23:42 UTC

1 25097U 66077S   26127.98757049 -.00000665  00000-0 -27693-1 0  9993
2 25097  88.2341 133.6972 1992327  68.6249 311.4962  8.93472887345789

Verfolge OPS 0856 DEB in Echtzeit mit AllMySat

Download on the App Store